Location: Unspecified
(0.0000°N, 0.0000°E)
Time: 13:54:07
(UTC+00:00)

Altair - Pass Details

Date: 27 October 2021
Orbit: 1502 x 1682 km, 47.2° (Epoch: 26 November)

Event Time Altitude Azimuth Distance (km) Brightness Sun altitude
Rises 09:53:18 0° 331° (NNW) 4,862 9.9 59.7°
Reaches altitude 10° 09:56:32 10° 335° (NNW) 3,894 9.5 60.4°
Maximum altitude 10:06:14 54° 50° (NE) 1,973 9.2 62.6°
Drops below altitude 10° 10:16:02 10° 125° (SE) 3,937 10.2 64.7°
Sets 10:19:18 0° 129° (SE) 4,918 10.5 65.4°
